Time,TemperatureF,DewpointF,PressureIn,WindDirection,WindDirectionDegrees,WindSpeedMPH,WindSpeedGustMPH,Humidity,HourlyPrecipIn,Conditions,Clouds,dailyrainin,SoftwareType,DateUTC
2013-01-23 00:03:00,13.0,-4.0,-100.00,NW,315,4.0,8.0,45,0.00,,,-99.99,,2013-01-23 05:03:00,
2013-01-23 00:12:00,13.0,-4.0,-100.00,NW,315,3.0,8.0,45,0.00,,,-99.99,,2013-01-23 05:12:00,
2013-01-23 00:22:00,13.0,-4.0,-100.00,NW,320,4.0,7.0,46,0.00,,,-99.99,,2013-01-23 05:22:00,
2013-01-23 00:33:00,13.0,-4.0,-100.00,NW,320,6.0,11.0,46,0.00,,,-99.99,,2013-01-23 05:33:00,
2013-01-23 00:43:00,13.0,-4.0,-100.00,NW,315,4.0,9.0,46,0.00,,,-99.99,,2013-01-23 05:43:00,
2013-01-23 00:52:00,13.0,-4.0,-100.00,NNW,330,2.0,7.0,46,0.00,,,-99.99,,2013-01-23 05:52:00,
2013-01-23 01:03:00,13.0,-4.0,-100.00,NW,325,2.0,7.0,46,0.00,,,-99.99,,2013-01-23 06:03:00,
2013-01-23 01:12:00,13.0,-4.0,-100.00,NW,320,4.0,7.0,47,0.00,,,-99.99,,2013-01-23 06:12:00,
2013-01-23 01:22:00,13.0,-4.0,-100.00,WNW,295,4.0,7.0,47,0.00,,,-99.99,,2013-01-23 06:22:00,
2013-01-23 01:33:00,13.0,-3.0,-100.00,WNW,300,4.0,8.0,48,0.00,,,-99.99,,2013-01-23 06:33:00,
2013-01-23 01:43:00,13.0,-3.0,-100.00,NW,305,2.0,6.0,48,0.00,,,-99.99,,2013-01-23 06:43:00,
2013-01-23 01:52:00,12.0,-3.0,-100.00,NW,305,4.0,6.0,48,0.00,,,-99.99,,2013-01-23 06:52:00,
2013-01-23 02:02:00,12.0,-3.0,-100.00,NW,320,2.0,6.0,48,0.00,,,-99.99,,2013-01-23 07:02:00,
2013-01-23 02:12:00,12.0,-3.0,-100.00,NW,305,3.0,6.0,49,0.00,,,-99.99,,2013-01-23 07:12:00,
2013-01-23 02:22:00,13.0,-3.0,-100.00,WNW,295,4.0,7.0,49,0.00,,,-99.99,,2013-01-23 07:22:00,
2013-01-23 02:33:00,13.0,-3.0,-100.00,WNW,290,6.0,8.0,49,0.00,,,-99.99,,2013-01-23 07:33:00,
2013-01-23 02:42:00,13.0,-3.0,-100.00,NW,315,4.0,9.0,49,0.00,,,-99.99,,2013-01-23 07:42:00,
2013-01-23 02:52:00,13.0,-3.0,-100.00,NW,310,4.0,9.0,49,0.00,,,-99.99,,2013-01-23 07:52:00,
2013-01-23 03:02:00,13.0,-3.0,-100.00,NW,320,4.0,9.0,49,0.00,,,-99.99,,2013-01-23 08:02:00,
2013-01-23 03:13:00,13.0,-3.0,-100.00,NW,310,5.0,9.0,48,0.00,,,-99.99,,2013-01-23 08:13:00,
2013-01-23 03:22:00,13.0,-3.0,-100.00,NW,320,6.0,10.0,48,0.00,,,-99.99,,2013-01-23 08:22:00,
2013-01-23 03:33:00,13.0,-3.0,-100.00,NW,305,6.0,12.0,48,0.00,,,-99.99,,2013-01-23 08:33:00,
2013-01-23 03:43:00,13.0,-3.0,-100.00,NW,315,6.0,9.0,48,0.00,,,-99.99,,2013-01-23 08:43:00,
2013-01-23 03:52:00,13.0,-3.0,-100.00,NW,315,6.0,10.0,48,0.00,,,-99.99,,2013-01-23 08:52:00,
2013-01-23 04:03:00,13.0,-2.0,-100.00,NW,315,5.0,9.0,49,0.00,,,-99.99,,2013-01-23 09:03:00,
2013-01-23 04:12:00,13.0,-3.0,-100.00,NW,320,6.0,7.0,49,0.00,,,-99.99,,2013-01-23 09:12:00,
2013-01-23 04:22:00,13.0,-3.0,-100.00,NW,310,4.0,7.0,49,0.00,,,-99.99,,2013-01-23 09:22:00,
2013-01-23 04:33:00,13.0,-3.0,-100.00,NW,325,4.0,7.0,50,0.00,,,-99.99,,2013-01-23 09:33:00,
2013-01-23 04:43:00,12.0,-3.0,-100.00,NW,320,4.0,9.0,50,0.00,,,-99.99,,2013-01-23 09:43:00,
2013-01-23 04:52:00,12.0,-3.0,-100.00,NW,305,6.0,12.0,49,0.00,,,-99.99,,2013-01-23 09:52:00,
2013-01-23 05:03:00,12.0,-3.0,-100.00,NNW,330,4.0,9.0,48,0.00,,,-99.99,,2013-01-23 10:03:00,
2013-01-23 05:12:00,12.0,-3.0,-100.00,NW,315,6.0,9.0,48,0.00,,,-99.99,,2013-01-23 10:12:00,
2013-01-23 05:23:00,12.0,-3.0,-100.00,NW,315,5.0,9.0,49,0.00,,,-99.99,,2013-01-23 10:23:00,
2013-01-23 05:33:00,12.0,-3.0,-100.00,NW,315,4.0,7.0,50,0.00,,,-99.99,,2013-01-23 10:33:00,
2013-01-23 05:43:00,12.0,-3.0,-100.00,NW,315,4.0,6.0,50,0.00,,,-99.99,,2013-01-23 10:43:00,
2013-01-23 05:52:00,12.0,-3.0,-100.00,NW,315,2.0,4.0,50,0.00,,,-99.99,,2013-01-23 10:52:00,
2013-01-23 06:03:00,11.0,-3.0,-100.00,NW,315,1.0,4.0,50,0.00,,,-99.99,,2013-01-23 11:03:00,
2013-01-23 06:12:00,11.0,-3.0,-100.00,NW,315,1.0,4.0,50,0.00,,,-99.99,,2013-01-23 11:12:00,
2013-01-23 06:23:00,11.0,-3.0,-100.00,NW,315,2.0,7.0,50,0.00,,,-99.99,,2013-01-23 11:23:00,
2013-01-23 06:43:00,11.0,-4.0,-100.00,NNW,330,1.0,4.0,50,0.00,,,-99.99,,2013-01-23 11:43:00,
2013-01-23 06:53:00,11.0,-4.0,-100.00,North,355,1.0,3.0,50,0.00,,,-99.99,,2013-01-23 11:53:00,
2013-01-23 07:03:00,11.0,-4.0,-100.00,WNW,300,2.0,4.0,50,0.00,,,-99.99,,2013-01-23 12:03:00,
2013-01-23 07:13:00,11.0,-3.0,-100.00,WNW,295,1.0,4.0,50,0.00,,,-99.99,,2013-01-23 12:13:00,
2013-01-23 07:22:00,12.0,-3.0,-100.00,West,280,2.0,4.0,50,0.00,,,-99.99,,2013-01-23 12:22:00,
2013-01-23 07:33:00,12.0,-3.0,-100.00,WNW,295,1.0,2.0,50,0.00,,,-99.99,,2013-01-23 12:33:00,
2013-01-23 07:43:00,12.0,-3.0,-100.00,WNW,285,2.0,4.0,50,0.00,,,-99.99,,2013-01-23 12:43:00,
2013-01-23 07:53:00,12.0,-3.0,-100.00,WNW,300,2.0,4.0,50,0.00,,,-99.99,,2013-01-23 12:53:00,
2013-01-23 08:04:00,12.0,-3.0,-100.00,West,265,1.0,5.0,50,0.00,,,-99.99,,2013-01-23 13:04:00,
2013-01-23 08:13:00,12.0,-3.0,-100.00,WNW,290,3.0,5.0,50,0.00,,,-99.99,,2013-01-23 13:13:00,
2013-01-23 08:23:00,13.0,-2.0,-100.00,NW,310,1.0,5.0,50,0.00,,,-99.99,,2013-01-23 13:23:00,
2013-01-23 08:33:00,13.0,-2.0,-100.00,SW,225,4.0,6.0,50,0.00,,,-99.99,,2013-01-23 13:33:00,
2013-01-23 08:42:00,13.0,-2.0,-100.00,WNW,285,3.0,6.0,50,0.00,,,-99.99,,2013-01-23 13:42:00,
2013-01-23 08:52:00,13.0,-2.0,-100.00,NW,310,5.0,8.0,48,0.00,,,-99.99,,2013-01-23 13:52:00,
2013-01-23 09:03:00,13.0,-3.0,-100.00,West,280,2.0,11.0,48,0.00,,,-99.99,,2013-01-23 14:03:00,
2013-01-23 09:12:00,13.0,-3.0,-100.00,WNW,285,4.0,7.0,47,0.00,,,-99.99,,2013-01-23 14:12:00,
2013-01-23 09:23:00,14.0,-3.0,-100.00,WNW,295,3.0,7.0,47,0.00,,,-99.99,,2013-01-23 14:23:00,
2013-01-23 09:33:00,14.0,-3.0,-100.00,WNW,285,4.0,8.0,47,0.00,,,-99.99,,2013-01-23 14:33:00,
2013-01-23 09:43:00,14.0,-2.0,-100.00,WSW,255,4.0,7.0,48,0.00,,,-99.99,,2013-01-23 14:43:00,
2013-01-23 09:53:00,14.0,-2.0,-100.00,WSW,255,1.0,7.0,48,0.00,,,-99.99,,2013-01-23 14:53:00,
2013-01-23 10:03:00,14.0,-1.0,-100.00,WSW,240,4.0,6.0,48,0.00,,,-99.99,,2013-01-23 15:03:00,
2013-01-23 10:12:00,15.0,-1.0,-100.00,West,270,6.0,9.0,48,0.00,,,-99.99,,2013-01-23 15:12:00,
2013-01-23 10:23:00,15.0,-1.0,-100.00,West,270,7.0,10.0,48,0.00,,,-99.99,,2013-01-23 15:23:00,
2013-01-23 10:33:00,16.0,-1.0,-100.00,West,280,6.0,9.0,47,0.00,,,-99.99,,2013-01-23 15:33:00,
2013-01-23 10:43:00,16.0,-1.0,-100.00,West,265,6.0,13.0,45,0.00,,,-99.99,,2013-01-23 15:43:00,
2013-01-23 10:53:00,16.0,-2.0,-100.00,WNW,300,6.0,14.0,44,0.00,,,-99.99,,2013-01-23 15:53:00,
2013-01-23 11:03:00,17.0,-1.0,-100.00,West,270,3.0,11.0,43,0.00,,,-99.99,,2013-01-23 16:03:00,
2013-01-23 11:12:00,17.0,-2.0,-100.00,WNW,285,7.0,12.0,43,0.00,,,-99.99,,2013-01-23 16:12:00,
2013-01-23 11:23:00,17.0,-2.0,-100.00,WNW,285,7.0,12.0,42,0.00,,,-99.99,,2013-01-23 16:23:00,
2013-01-23 11:33:00,17.0,-2.0,-100.00,WSW,255,7.0,12.0,41,0.00,,,-99.99,,2013-01-23 16:33:00,
2013-01-23 11:42:00,18.0,-2.0,-100.00,West,280,6.0,12.0,40,0.00,,,-99.99,,2013-01-23 16:42:00,
2013-01-23 11:52:00,18.0,-2.0,-100.00,West,270,6.0,13.0,41,0.00,,,-99.99,,2013-01-23 16:52:00,
2013-01-23 12:03:00,18.0,-2.0,-100.00,WSW,245,9.0,14.0,41,0.00,,,-99.99,,2013-01-23 17:03:00,
2013-01-23 12:12:00,18.0,-1.0,-100.00,West,260,7.0,12.0,41,0.00,,,-99.99,,2013-01-23 17:12:00,
2013-01-23 12:23:00,19.0,-1.0,-100.00,West,270,7.0,13.0,40,0.00,,,-99.99,,2013-01-23 17:23:00,
2013-01-23 12:33:00,19.0,-1.0,-100.00,West,260,9.0,14.0,39,0.00,,,-99.99,,2013-01-23 17:33:00,
2013-01-23 12:42:00,19.0,-1.0,-100.00,SW,235,8.0,12.0,39,0.00,,,-99.99,,2013-01-23 17:42:00,
2013-01-23 12:53:00,20.0,-1.0,-100.00,West,265,7.0,12.0,39,0.00,,,-99.99,,2013-01-23 17:53:00,
2013-01-23 13:03:00,20.0,-1.0,-100.00,WSW,250,7.0,12.0,38,0.00,,,-99.99,,2013-01-23 18:03:00,
2013-01-23 13:12:00,20.0,-1.0,-100.00,WNW,285,6.0,14.0,37,0.00,,,-99.99,,2013-01-23 18:12:00,
2013-01-23 13:23:00,21.0,-2.0,-100.00,West,270,7.0,12.0,36,0.00,,,-99.99,,2013-01-23 18:23:00,
2013-01-23 13:33:00,21.0,-2.0,-100.00,West,265,8.0,12.0,35,0.00,,,-99.99,,2013-01-23 18:33:00,
2013-01-23 13:43:00,21.0,-2.0,-100.00,WNW,285,6.0,12.0,34,0.00,,,-99.99,,2013-01-23 18:43:00,
2013-01-23 13:53:00,21.0,-2.0,-100.00,West,265,6.0,14.0,34,0.00,,,-99.99,,2013-01-23 18:53:00,
2013-01-23 14:03:00,21.0,-3.0,-100.00,West,260,7.0,15.0,34,0.00,,,-99.99,,2013-01-23 19:03:00,
2013-01-23 14:13:00,22.0,-3.0,-100.00,West,260,7.0,14.0,33,0.00,,,-99.99,,2013-01-23 19:13:00,
2013-01-23 14:23:00,22.0,-3.0,-100.00,WSW,255,7.0,15.0,33,0.00,,,-99.99,,2013-01-23 19:23:00,
2013-01-23 14:33:00,21.0,-4.0,-100.00,West,265,4.0,16.0,32,0.00,,,-99.99,,2013-01-23 19:33:00,
2013-01-23 14:43:00,22.0,-4.0,-100.00,West,280,7.0,13.0,31,0.00,,,-99.99,,2013-01-23 19:43:00,
2013-01-23 14:53:00,22.0,-4.0,-100.00,WSW,250,5.0,12.0,31,0.00,,,-99.99,,2013-01-23 19:53:00,
2013-01-23 15:03:00,21.0,-4.0,-100.00,West,260,9.0,13.0,31,0.00,,,-99.99,,2013-01-23 20:03:00,
2013-01-23 15:13:00,21.0,-4.0,-100.00,WSW,250,6.0,13.0,31,0.00,,,-99.99,,2013-01-23 20:13:00,
2013-01-23 15:23:00,22.0,-4.0,-100.00,West,280,7.0,12.0,31,0.00,,,-99.99,,2013-01-23 20:23:00,
2013-01-23 15:33:00,22.0,-4.0,-100.00,West,260,4.0,11.0,31,0.00,,,-99.99,,2013-01-23 20:33:00,
2013-01-23 15:43:00,22.0,-4.0,-100.00,WNW,300,7.0,13.0,31,0.00,,,-99.99,,2013-01-23 20:43:00,
2013-01-23 15:53:00,22.0,-3.0,-100.00,West,260,7.0,14.0,32,0.00,,,-99.99,,2013-01-23 20:53:00,
2013-01-23 16:03:00,22.0,-3.0,-100.00,WNW,295,4.0,13.0,32,0.00,,,-99.99,,2013-01-23 21:03:00,
2013-01-23 16:12:00,22.0,-3.0,-100.00,NW,305,6.0,12.0,32,0.00,,,-99.99,,2013-01-23 21:12:00,
2013-01-23 16:23:00,22.0,-3.0,-100.00,West,280,7.0,11.0,33,0.00,,,-99.99,,2013-01-23 21:23:00,
2013-01-23 16:33:00,22.0,-3.0,-100.00,WSW,250,9.0,13.0,33,0.00,,,-99.99,,2013-01-23 21:33:00,
2013-01-23 16:43:00,22.0,-3.0,-100.00,West,265,4.0,12.0,33,0.00,,,-99.99,,2013-01-23 21:43:00,
2013-01-23 16:52:00,21.0,-2.0,-100.00,West,260,4.0,12.0,34,0.00,,,-99.99,,2013-01-23 21:52:00,
2013-01-23 17:03:00,21.0,-1.0,-100.00,West,260,7.0,12.0,36,0.00,,,-99.99,,2013-01-23 22:03:00,
2013-01-23 17:12:00,21.0,-1.0,-100.00,WNW,290,7.0,13.0,38,0.00,,,-99.99,,2013-01-23 22:12:00,
2013-01-23 17:23:00,21.0,0.0,-100.00,West,265,6.0,10.0,39,0.00,,,-99.99,,2013-01-23 22:23:00,
2013-01-23 17:33:00,21.0,1.0,-100.00,West,265,7.0,12.0,41,0.00,,,-99.99,,2013-01-23 22:33:00,
2013-01-23 17:42:00,20.0,2.0,-100.00,West,265,7.0,13.0,44,0.00,,,-99.99,,2013-01-23 22:42:00,
2013-01-23 17:53:00,20.0,3.0,-100.00,West,275,6.0,11.0,46,0.00,,,-99.99,,2013-01-23 22:53:00,
2013-01-23 18:03:00,20.0,4.0,-100.00,West,270,5.0,13.0,48,0.00,,,-99.99,,2013-01-23 23:03:00,
2013-01-23 18:13:00,20.0,5.0,-100.00,West,280,9.0,14.0,51,0.00,,,-99.99,,2013-01-23 23:13:00,
2013-01-23 18:23:00,20.0,6.0,-100.00,West,275,7.0,14.0,55,0.00,,,-99.99,,2013-01-23 23:23:00,
2013-01-23 18:33:00,20.0,7.0,-100.00,West,265,3.0,12.0,57,0.00,,,-99.99,,2013-01-23 23:33:00,
2013-01-23 18:43:00,20.0,8.0,-100.00,West,270,7.0,13.0,58,0.00,,,-99.99,,2013-01-23 23:43:00,
2013-01-23 18:53:00,19.0,8.0,-100.00,West,275,7.0,12.0,60,0.00,,,-99.99,,2013-01-23 23:53:00,
2013-01-23 19:03:00,19.0,8.0,-100.00,West,270,6.0,11.0,60,0.00,,,-99.99,,2013-01-24 00:03:00,
2013-01-23 19:12:00,19.0,8.0,-100.00,West,265,7.0,13.0,62,0.00,,,-99.99,,2013-01-24 00:12:00,
2013-01-23 19:22:00,19.0,9.0,-100.00,WNW,285,4.0,9.0,63,0.00,,,-99.99,,2013-01-24 00:22:00,
2013-01-23 19:33:00,19.0,9.0,-100.00,WSW,250,4.0,10.0,64,0.00,,,-99.99,,2013-01-24 00:33:00,
2013-01-23 19:43:00,19.0,9.0,-100.00,WSW,250,4.0,9.0,65,0.00,,,-99.99,,2013-01-24 00:43:00,
2013-01-23 19:53:00,19.0,9.0,-100.00,West,265,3.0,7.0,65,0.00,,,-99.99,,2013-01-24 00:53:00,
2013-01-23 20:03:00,19.0,9.0,-100.00,West,275,4.0,7.0,67,0.00,,,-99.99,,2013-01-24 01:03:00,
2013-01-23 20:12:00,19.0,10.0,-100.00,West,270,4.0,6.0,67,0.00,,,-99.99,,2013-01-24 01:12:00,
2013-01-23 20:23:00,19.0,10.0,-100.00,West,260,2.0,4.0,67,0.00,,,-99.99,,2013-01-24 01:23:00,
2013-01-23 20:33:00,19.0,10.0,-100.00,West,280,1.0,5.0,68,0.55,,,-99.99,,2013-01-24 01:33:00,
2013-01-23 20:42:00,19.0,10.0,-100.00,WSW,245,3.0,4.0,69,0.00,,,-99.99,,2013-01-24 01:42:00,
2013-01-23 20:52:00,19.0,11.0,-100.00,WSW,245,2.0,4.0,70,0.00,,,-99.99,,2013-01-24 01:52:00,
2013-01-23 21:03:00,19.0,11.0,-100.00,WSW,245,1.0,4.0,70,0.00,,,-99.99,,2013-01-24 02:03:00,
2013-01-23 21:12:00,19.0,11.0,-100.00,WSW,255,1.0,3.0,71,0.00,,,-99.99,,2013-01-24 02:12:00,
2013-01-23 21:22:00,19.0,11.0,-100.00,SSW,210,2.0,3.0,72,0.00,,,-99.99,,2013-01-24 02:22:00,
2013-01-23 21:33:00,19.0,11.0,-100.00,West,280,2.0,5.0,72,0.00,,,-99.99,,2013-01-24 02:33:00,
2013-01-23 21:42:00,19.0,11.0,-100.00,West,280,2.0,5.0,72,0.00,,,-99.99,,2013-01-24 02:42:00,
2013-01-23 21:52:00,19.0,11.0,-100.00,West,280,2.0,5.0,72,0.00,,,-99.99,,2013-01-24 02:52:00,
2013-01-23 22:03:00,19.0,12.0,-100.00,WNW,285,3.0,6.0,74,0.00,,,-99.99,,2013-01-24 03:03:00,
2013-01-23 22:12:00,19.0,12.0,-100.00,West,280,3.0,5.0,74,0.00,,,-99.99,,2013-01-24 03:12:00,
2013-01-23 22:22:00,19.0,12.0,-100.00,West,280,2.0,6.0,75,0.00,,,-99.99,,2013-01-24 03:22:00,
2013-01-23 22:33:00,19.0,12.0,-100.00,West,280,2.0,6.0,75,0.00,,,-99.99,,2013-01-24 03:33:00,
2013-01-23 22:43:00,19.0,12.0,-100.00,WNW,295,2.0,4.0,75,0.00,,,-99.99,,2013-01-24 03:43:00,
2013-01-23 22:52:00,19.0,12.0,-100.00,WSW,240,2.0,5.0,75,0.00,,,-99.99,,2013-01-24 03:52:00,
2013-01-23 23:03:00,19.0,12.0,-100.00,West,280,1.0,3.0,75,0.00,,,-99.99,,2013-01-24 04:03:00,
2013-01-23 23:12:00,19.0,12.0,-100.00,West,260,1.0,4.0,75,0.00,,,-99.99,,2013-01-24 04:12:00,
2013-01-23 23:22:00,19.0,12.0,-100.00,West,280,2.0,4.0,75,0.00,,,-99.99,,2013-01-24 04:22:00,
2013-01-23 23:33:00,19.0,12.0,-100.00,West,260,2.0,5.0,76,0.00,,,-99.99,,2013-01-24 04:33:00,
2013-01-23 23:42:00,19.0,13.0,-100.00,WNW,290,2.0,5.0,76,0.55,,,-99.99,,2013-01-24 04:42:00,
2013-01-23 23:52:00,19.0,13.0,-100.00,WNW,285,1.0,5.0,77,0.55,,,-99.99,,2013-01-24 04:52:00,